Content
SEND FEEDBACK

Daily
Averages
Monthly
Summary
South Korea

UIJONGBU, SOUTH KOREA


Home > Asia > South Korea
Elevation: 71 meters     Latitude: 37 43N     Longitude: 127 06E

WEATHER
 
SELECT A DAY
Number of Records: 199,346;   Date Range: 7/1/96 - 12/19/14
 
SHARE

PRINT THIS DATA

[ ← Previous Day ]
WEATHER ALMANAC - 31 JANUARY, 2013
[ Next Day → ]
[ °F ]   °C
Weather ElementAverageHighLow
Temperature6.3 °C11 °C (3:00 pm)0 °C (6:00 am)
Dewpoint-0.3 °C1 °C (10:00 am)-3 °C (6:00 am)
Humidity64.9 %87 % (5:00 am)47 % (3:00 pm)
Barometer1029.5 hPa1031.2 hPa (3:00 am)1025.1 hPa (11:00 pm)
Wind Speed7.9 km/h13 km/h (3:00 pm)
Weather ElementAverage
Visibility5 km
Wind DirectionSE (135.4 °)

Weather ElementTotal
Precipitation---
Heating Degree Days12.8 (Base 18.3)
Averaged from 24 records on 31 January, 2013
WEATHER CONDITIONS BREAKOUT
WIND DIRECTION BREAKOUT
WEATHER BY HOUR - 31 JANUARY, 2013
[ °F ]   °C
Local TimeTemperatureDewpointHumidityBarometerVisibilityWind DirectionWind SpeedGust SpeedPrecipitationEventsConditions
1:00 AM3 °C0 °C81 %1030.1 hPa2.6 kmSouth (180°)5.6 km/hMostly Cloudy
2:00 AM4 °C0 °C75 %1030.1 hPa2.7 kmWest (260°)3.7 km/hMostly Cloudy
3:00 AM4 °C0 °C75 %1031.2 hPaWSW (250°)5.6 km/hMostly Cloudy
4:00 AM4 °C0 °C75 %1030.1 hPa3.5 kmNNW (330°)5.6 km/hScattered Clouds
5:00 AM1 °C-1 °C87 %1030.1 hPa3.5 kmSE (130°)3.7 km/hPartly Cloudy
6:00 AM0 °C-3 °C80 %1030.1 hPaCalmScattered Clouds
6:14 AM1 °C-1 °C87 %1031.2 hPa2.3 kmNNE (20°)5.6 km/hScattered Clouds
7:00 AM0 °C-2 °C87 %1031.2 hPa1.8 kmNNW (330°)5.6 km/hScattered Clouds
8:00 AM0 °C-2 °C87 %1031.2 hPa2.3 kmCalmPartly Cloudy
9:00 AM2 °C0 °C87 %1031.2 hPa2.6 kmSSW (200°)3.7 km/hPartly Cloudy
10:00 AM7 °C1 °C66 %1031.2 hPa3.5 kmSSE (150°)9.3 km/hMist
11:00 AM8 °C0 °C57 %1031.2 hPaESE (110°)9.3 km/hHaze
12:00 PM9 °C0 °C54 %1031.2 hPaESE (110°)9.3 km/hHaze
1:00 PM10 °C0 °C50 %1030.1 hPa5 kmESE (110°)9.3 km/hHaze
2:00 PM10 °C1 °C54 %1029.1 hPa6 kmEast (90°)11.1 km/h
3:00 PM11 °C0 °C47 %1028.1 hPa8 kmEast (100°)13 km/hScattered Clouds
4:00 PM11 °C0 °C47 %1028.1 hPa8 kmEast (100°)11.1 km/hScattered Clouds
5:00 PM10 °C0 °C50 %1028.1 hPa8 kmEast (90°)11.1 km/hScattered Clouds
6:00 PM10 °C0 °C50 %1027.1 hPa8 kmEast (90°)13 km/hMostly Cloudy
7:00 PM10 °C0 °C50 %1028.1 hPa6.9 kmESE (110°)9.3 km/hMostly Cloudy
8:00 PM10 °C0 °C50 %1027.1 hPa6 kmESE (110°)11.1 km/hMostly Cloudy
9:00 PM10 °C0 °C50 %1026.1 hPa6 kmENE (70°)11.1 km/hMostly Cloudy
10:00 PM9 °C0 °C54 %1026.1 hPa6 kmSouth (180°)13 km/hOvercast
11:00 PM8 °C0 °C57 %1025.1 hPa6 kmSE (130°)9.3 km/hOvercast
Hourly data recorded from RKSS, located 0 kilometers away from Uijongbu, South Korea







STORIES FROM OUR PARTNERS